OpenBCM V1.13 (Linux)

Packet Radio Mailbox

DB0FHN

[JN59NK Nuernberg]

 Login: GUEST





  
UA9FBV > KEPS     12.11.04 08:26l 151 Lines 3945 Bytes #999 (0) @ AMSAT
BID : ORB04316.O
Read: GUEST
Subj: Orbital Elements  04316.OSCAR
Path: DB0FHN<DB0RGB<DB0MRW<DB0HOT<OK0PBX<OK0PRG<OK0PCC<OK0PAD<OK0PPL<DB0RES<
      ER3KAZ<UA9FBV
Sent: 041112/0618Z @:UA9FBV.PRM.RUS.AS #:8765 [Perm] GATEWAY $:ORB04316.O
From: UA9FBV@UA9FBV.PRM.RUS.AS
To  : KEPS@AMSAT


HR AMSAT ORBITAL ELEMENTS FOR OSCAR SATELLITES
FROM WA5QGD FORT WORTH,TX November 11, 2004
SEND SUBSCRIBE/UNSUBSCRIBE TO majordomo@amsat.org ONLY
BID: ORB04316.O
TO ALL RADIO AMATEURS BT

Satellite: AO-07
Catalog number: 07530
Epoch time:      04316.20060390
Element set:     345
Inclination:      101.6642 deg
RA of node:         0.5348 deg
Eccentricity:    0.0012085
Arg of perigee:   298.0701 deg
Mean anomaly:      61.9148 deg
Mean motion:   12.53569339 rev/day
Decay rate:       -2.9e-07 rev/day^2
Epoch rev:           37233
Checksum:              267

Satellite: AO-10
Catalog number: 14129
Epoch time:      04315.29092548
Element set:    0120
Inclination:      026.7780 deg
RA of node:       062.3200 deg
Eccentricity:    0.6032734
Arg of perigee:   139.4977 deg
Mean anomaly:     286.2843 deg
Mean motion:   02.05870533 rev/day
Decay rate:      -2.22e-06 rev/day^2
Epoch rev:           16102
Checksum:              274

Satellite: UO-11
Catalog number: 14781
Epoch time:      04316.18473741
Element set:     632
Inclination:       98.1894 deg
RA of node:       303.5613 deg
Eccentricity:    0.0008782
Arg of perigee:   346.8861 deg
Mean anomaly:      13.2127 deg
Mean motion:   14.79064216 rev/day
Decay rate:      1.559e-05 rev/day^2
Epoch rev:           10957
Checksum:              311

Satellite: RS-10/11
Catalog number: 18129
Epoch time:      04315.65358324
Element set:    0539
Inclination:      082.9286 deg
RA of node:       039.7812 deg
Eccentricity:    0.0010109
Arg of perigee:   275.0015 deg
Mean anomaly:     084.9995 deg
Mean motion:   13.72747859 rev/day
Decay rate:        1.6e-07 rev/day^2
Epoch rev:           87109
Checksum:              326

Satellite: FO-20
Catalog number: 20480
Epoch time:      04316.49003346
Element set:     738
Inclination:       99.0246 deg
RA of node:       166.0930 deg
Eccentricity:    0.0540271
Arg of perigee:    13.1845 deg
Mean anomaly:     348.2759 deg
Mean motion:   12.83343649 rev/day
Decay rate:        1.0e-07 rev/day^2
Epoch rev:           69157
Checksum:              294

Satellite: RS-12/13
Catalog number: 21089
Epoch time:      04315.84964490
Element set:     759
Inclination:       82.9214 deg
RA of node:        72.9226 deg
Eccentricity:    0.0028080
Arg of perigee:   330.3610 deg
Mean anomaly:      29.5971 deg
Mean motion:   13.74443769 rev/day
Decay rate:       1.83e-06 rev/day^2
Epoch rev:           69050
Checksum:              316

Satellite: RS-15
Catalog number: 23439
Epoch time:      04316.84381897
Element set:     819
Inclination:       64.8132 deg
RA of node:        99.0426 deg
Eccentricity:    0.0157538
Arg of perigee:   354.8209 deg
Mean anomaly:       5.1062 deg
Mean motion:   11.27550298 rev/day
Decay rate:       -3.9e-07 rev/day^2
Epoch rev:           40688
Checksum:              325

Satellite: FO-29
Catalog number: 24278
Epoch time:      04316.26646202
Element set:     825
Inclination:       98.5806 deg
RA of node:        28.9230 deg
Eccentricity:    0.0351410
Arg of perigee:    20.9240 deg
Mean anomaly:     340.5883 deg
Mean motion:   13.52905083 rev/day
Decay rate:        9.2e-07 rev/day^2
Epoch rev:           40672
Checksum:              290

Satellite: SO-33
Catalog number: 25509
Epoch time:      04316.06411784
Element set:     234
Inclination:       31.4287 deg
RA of node:       185.4096 deg
Eccentricity:    0.0358281
Arg of perigee:    59.7138 deg
Mean anomaly:     303.8457 deg
Mean motion:   14.27909120 rev/day
Decay rate:      1.705e-05 rev/day^2
Epoch rev:           31562
Checksum:              303

Satellite: AO-40
Catalog number: 26609
Epoch time:      04314.36615404
Element set:     456
Inclination:        9.4117 deg
RA of node:       335.2807 deg
Eccentricity:    0.7961147
Arg of perigee:   337.0403 deg
Mean anomaly:       1.7301 deg
Mean motion:    1.25585729 rev/day
Decay rate:        9.0e-08 rev/day^2
Epoch rev:            1849
Checksum:              287



Read previous mail | Read next mail


 23.06.2026 15:39:01lGo back Go up